Simultaneous Nadir Overpasses (SNOs) Predictions

Prediction of SNOs between AQUA and METOP-A Satellite Orbit:

Table of predicted SNOs for the next 14.0 days since TLE Epoch: 8/31/2013
Index Date (AQUA) Time (AQUA) Lat,Lon (AQUA) SZA (AQUA ) Date (METOP-A) Time (METOP-A) Lat,Lon (METOP-A) SZA (METOP-A ) Distance(km) Time Diff (sec)
1 09/02/2013 22:12:30 -73.56, 21.70 114.07 09/02/2013 22:11:19 -73.53, 20.55 114.05 36.15 71
2 09/02/2013 23:02:03 73.85,-171.31 66.26 09/02/2013 23:01:53 73.84,-171.39 66.25 3.30 10
3 09/02/2013 23:51:30 -73.92, -3.82 113.65 09/02/2013 23:52:33 -73.91, -3.90 113.67 3.07 63
4 09/05/2013 17:46:46 -73.83, 87.57 112.75 09/05/2013 17:45:36 -73.81, 87.62 112.76 2.64 70
5 09/05/2013 18:36:14 73.87,-104.89 67.31 09/05/2013 18:36:15 73.87,-104.92 67.31 0.94 1
6 09/05/2013 19:25:41 -73.93, 62.61 112.61 09/05/2013 19:26:55 -73.94, 62.58 112.61 0.92 74
7 09/08/2013 13:20:55 -73.81, 154.06 111.72 09/08/2013 13:19:57 -73.83, 154.08 111.69 2.72 58
8 09/08/2013 14:10:24 73.91, -38.52 68.40 09/08/2013 14:10:36 73.89, -38.45 68.38 2.89 12
9 09/08/2013 14:59:59 -74.38, 128.04 111.09 09/08/2013 15:01:07 -74.40, 130.16 111.12 63.67 68
10 09/11/2013 08:55:05 -73.82,-139.49 110.65 09/11/2013 08:54:20 -73.80,-139.58 110.66 2.93 45
11 09/11/2013 09:44:34 73.92, 27.92 69.47 09/11/2013 09:44:58 73.91, 28.00 69.46 2.88 24




NCC Satellite Simultaneous Nadir Overpasses (SNOs) Prediction Service
